ARIANE 44LP DEB, 25540

Orbit data source: Space-Track

ARIANE 44LP DEB, 25540 is space debris in HEO originally from a launch on Sun, 11 Dec 1988 UTC launched from the French Guiana (FRGUI). Debris objects in space refer to the collection of defunct objects orbiting the Earth. Examples of debris include non-operational satellites, rocket bodies, and fragments generated from explosions, collisions, or faulty payload assembly.

Loading next visibility...
Identifier
25540, 1988-109G
Orbit
HEO
Country
Flag of FRFR
Related business
Manufacturer
Unknown
Mission
Spacecraft
Bus & Motor
Unknown
Mass
Unknown
Launch date (UTC)
1988-12-11 (37 years ago)
Launch vehicle
Unknown
Launch site
French Guiana (FRGUI)
Object type
Payload
Rocket body
Debris
Shape & HBR
Unknown shape, 1.1 m
Radar Cross Section
Medium (>0.1 m² and <1 m²)

Expand to show TLE details & history
Last TLE update: 3 months ago

TLE from 3 months ago
0 ARIANE 44LP DEB
1 25540U 88109G   25317.59282676  .00008263  00000-0  81001-2 0  9996
2 25540   6.8705  59.2073 6579334  45.6048 352.1555  3.13778229268446
Epoch: 2025-11-13T14:13Z
TLE epoch observation values (Epoch: 2025-11-13T14:13:40.232Z)
Latitude
-0.00001°
Longitude
152.72261°
Altitude
1,282.76 km
Speed
9.156 km/s
True Right ascension
03h 56m 21s
True Declination
0° 00' 00"
Sunlit
Object was in full shadow at epoch
Visualization orbit readout
Latitude
Unknown
Longitude
Unknown
Altitude
Unknown
Speed
Unknown
Apparent Right ascension
Unknown
Apparent Declination
Unknown
Sunlit
N/A
Visualization observer readout
Local Sidereal Time
03:02:34
Azimuth
Unknown
Elevation
Unknown
Doppler factor
Unknown
Orbital elements
Apogee altitude
26,305.733 km
Perigee altitude
365.234 km
Semi-major axis
19,713.621 km
Eccentricity
0.65793
Inclination
6.8705°
RAAN
59.2073°
Arg. of periapsis
45.6048°
True anomaly
313.83285°
Mean anomaly
352.1555°
Eccentric anomaly
338.0873°
Mean motion
0.78414 °/min
Orbital period
459.1 mins
BSTAR
0.0081001
Loading maneuver chart data...
Computing Atmospheric mass density...
Loading historical data...
Loading historical data...
Loading historical data...
Loading historical data...
Loading historical data...
Loading historical data...
Loading historical data...

Documentation

Showing up to 5 results
|